Weather History for KSUX - December, 2012

Change the Weather History Date:

Sunday, December 16, 2012

  Actual Average Record
Temperature  
Mean Temperature 28 °F 22 °F  
Max Temperature 30 °F 31 °F 64 °F (1962)
Min Temperature 25 °F 13 °F -15 °F (1989)
Degree Days  
Heating Degree Days 37 43  
Month to date heating degree days 487 652  
Since 1 July heating degree days 1959 2128  
Cooling Degree Days 0 0  
Month to date cooling degree days 0 0  
Year to date cooling degree days 1249 869  
Moisture  
Dew Point 23 °F    
Average Humidity 84    
Maximum Humidity 92    
Minimum Humidity 75    
Precipitation  
Precipitation 0.00 in 0.02 in 0.55 in (1977)
Month to date precipitation 1.07 0.46  
Year to date precipitation 23.52 27.40  
Snow  
Snow 0.00 in 0.30 in 5.30 in (2008)
Month to date snowfall 0.5 4.2  
Since 1 July snowfall 0.6 9.6  
Snow Depth 0.00 in    
Sea Level Pressure  
Sea Level Pressure 29.81 in    
Wind  
Wind Speed 8 mph (NNW)    
Max Wind Speed 17 mph    
Max Gust Speed 20 mph    
Visibility 10 miles    
Events      
T = Trace of Precipitation, MM = Missing Value Source: NWS Daily Summary

Daily Weather History Graph

Daily Weather History Graph

Search for Another Location

Airport or City:

Trip Planner

Search our weather history database for the weather conditions in past years. The results will help you decide how hot, cold, wet, or windy it might be!

Date:

Astronomy

Dec. 16, 2012 Rise Set
Actual Time 7:48 AM CST 4:54 PM CST
Civil Twilight 7:16 AM CST 5:26 PM CST
Nautical Twilight 6:41 AM CST 6:01 PM CST
Astronomical Twilight 6:07 AM CST 6:35 PM CST
Moon 10:19 AM CST (12/16) 9:13 PM CST (12/16)
Length of Visible Light 10h 09m
Length of Day
9h 05m
Waxing Crescent, 16% of the Moon is Illuminated
Dec 16
Waxing Crescent
Dec 19
First Quarter
Dec 28
Full
Jan 4
Last Quarter
Jan 11
New

Hourly Weather History & Observations

Time (CST) Temp. Windchill Dew Point Humidity Pressure Visibility Wind Dir Wind Speed Gust Speed Precip Events Conditions
12:01 AM 30.2 °F 19.8 °F 26.6 °F 86% 29.72 in 10.0 mi NW 13.8 mph - N/A   Overcast
12:18 AM 30.2 °F 20.8 °F 26.6 °F 86% 29.72 in 10.0 mi NNW 11.5 mph - N/A   Scattered Clouds
12:52 AM 28.9 °F 19.2 °F 25.0 °F 85% 29.75 in 10.0 mi NW 11.5 mph - N/A   Clear
1:52 AM 28.9 °F 19.2 °F 25.0 °F 85% 29.75 in 10.0 mi NW 11.5 mph - N/A   Clear
2:52 AM 28.0 °F 18.1 °F 24.1 °F 85% 29.77 in 10.0 mi NNW 11.5 mph - N/A   Clear
3:52 AM 27.0 °F 15.2 °F 23.0 °F 85% 29.78 in 10.0 mi NNW 15.0 mph - N/A   Clear
4:52 AM 26.6 °F 16.2 °F 23.0 °F 86% 29.75 in 10.0 mi NW 11.5 mph - N/A   Clear
5:52 AM 27.0 °F 16.7 °F 21.9 °F 81% 29.80 in 10.0 mi NW 11.5 mph - N/A   Overcast
6:52 AM 27.0 °F 16.1 °F 21.9 °F 81% 29.80 in 10.0 mi NNW 12.7 mph - N/A   Overcast
7:52 AM 26.1 °F 16.2 °F 21.0 °F 81% 29.83 in 10.0 mi NW 10.4 mph - N/A   Overcast
8:52 AM 26.1 °F 16.8 °F 21.0 °F 81% 29.84 in 10.0 mi NW 9.2 mph - N/A   Overcast
9:52 AM 26.1 °F 15.0 °F 21.0 °F 81% 29.86 in 10.0 mi NNW 12.7 mph - N/A   Overcast
10:52 AM 27.0 °F 17.3 °F 21.0 °F 78% 29.85 in 10.0 mi NW 10.4 mph - N/A   Overcast
11:52 AM 27.0 °F 16.7 °F 21.9 °F 81% 29.82 in 10.0 mi NNW 11.5 mph - N/A   Overcast
12:52 PM 28.0 °F 20.0 °F 21.9 °F 78% 29.81 in 10.0 mi NW 8.1 mph - N/A   Overcast
1:52 PM 28.9 °F 22.8 °F 23.0 °F 78% 29.80 in 10.0 mi NNW 5.8 mph - N/A   Scattered Clouds
2:52 PM 28.0 °F 19.3 °F 23.0 °F 81% 29.80 in 10.0 mi NNW 9.2 mph - N/A   Partly Cloudy
3:52 PM 28.0 °F 18.6 °F 23.0 °F 81% 29.81 in 10.0 mi NW 10.4 mph - N/A   Overcast
4:52 PM 28.0 °F 20.0 °F 23.0 °F 81% 29.84 in 10.0 mi NW 8.1 mph - N/A   Overcast
5:52 PM 28.0 °F 21.7 °F 23.0 °F 81% 29.83 in 10.0 mi North 5.8 mph - N/A   Overcast
6:52 PM 27.0 °F - 21.9 °F 81% 29.84 in 10.0 mi Calm Calm - N/A   Clear
7:52 PM 27.0 °F 23.0 °F 24.1 °F 89% 29.86 in 10.0 mi WSW 3.5 mph - N/A   Overcast
8:52 PM 27.0 °F - 23.0 °F 85% 29.85 in 10.0 mi Calm Calm - N/A   Overcast
9:52 PM 28.0 °F 24.2 °F 23.0 °F 81% 29.85 in 10.0 mi East 3.5 mph - N/A   Overcast
10:52 PM 27.0 °F 23.0 °F 24.1 °F 89% 29.84 in 10.0 mi ENE 3.5 mph - N/A   Overcast
11:10 PM 26.6 °F - 24.8 °F 93% 29.80 in 10.0 mi Calm Calm - N/A   Overcast
11:19 PM 26.6 °F 22.6 °F 24.8 °F 93% 29.79 in 10.0 mi ENE 3.5 mph - N/A   Overcast
11:52 PM 28.0 °F 22.8 °F 25.0 °F 88% 29.83 in 10.0 mi East 4.6 mph - N/A   Overcast